CENTISPACE-2 S1

导读

CENTISPACE-2 S1(NORAD编号68350)是一颗中国小卫星,目前公开资料中对其具体任务披露较少。推测该卫星属于CENTISPACE系列,运行在近地轨道,可能用于技术验证或相关空间试验。它被纳入NORAD卫星跟踪目录,由地面持续监测其轨道运行状态。作为中国商业航天领域发射的微小卫星之一,该卫星对推动小卫星技术发展积累了实践经验,后续更多任务细节有待进一步公开披露。

基本信息
目录编号:
68350
目录名称:
CENTISPACE-2 S1
国际标识:
2026-060A
轨道中心:
EARTH
卫星名称:
CENTISPACE-2 S1
卫星全名:
CENTISPACE-2 S1
卫星状态:
在轨 (已飞行167 天)
发射日期:
2026-03-22 UTC
国别 :
中国 (CN)
星等 :
--
轨道信息
数据来源 国际轨道数据
星历时间: 2026-09-04T14:18:41+0800
1天前
查看轨道信息
半长轴: 7181.518km
偏心率: 0.0013269
轨道倾角: 54.982°
近地点辐角 269.842°
升交点赤经 87.646°
平近点角 90.104°
近地点: 793.851km
远地点: 812.911km
周期: 100.945分钟
每日圈数: 14.265219
详细信息
使用方式:
暂无
2D轨道图
3D轨道图
轨道高度分析图
轨道倾角分析图
轨道综合分析图
查看轨道综合分析图
交会数据列表
事件ID 空间交会对象 最接近时刻(TCA) 交会距离 交会风险概率(CRP) 交会风险指数(CRI) 操作
CDM_260907-113506-147406-835021
2026-09-07T
11:35:11+0000
1.194 km
极远距离
1.413088E-5 中风险 0.58
CDM_260906-233603-134806-835021
2026-09-06T
23:36:57+0000
1.442 km
极远距离
7.323943E-6 低风险 0.52
CDM_260905-175104-120606-835022
2026-09-05T
17:51:30+0000
2.085 km
极远距离
2.508824E-6 低风险 0.43
CDM_260906-062205-427706-835022
2026-09-06T
06:22:34+0000
2.788 km
极远距离
1.452846E-6 低风险 0.38
CDM_260906-005802-237606-835023
2026-09-06T
00:58:11+0000
2.642 km
极远距离
1.42224E-6 低风险 0.38
CDM_260905-212404-187806-835022
PSLV R/B (41878)
2026-09-05T
21:24:11+0000
2.981 km
极远距离
1.199252E-6 低风险 0.37